| time (UTC) | temp F | wind direction | speed MPH | gust MPH | rain 1hr in | rain 24hr in | rain mn in | humidity % | barometer mb |
| 20260906193010 | 55 | 328 | 0.0 | 0.0 | 0.00 | 0.00 | 0.47 | 88 | 1008.6 |
| 20260906191509 | 55 | 328 | 0.0 | 0.0 | 0.00 | 0.00 | 0.43 | 88 | 1008.4 |
| 20260906190006 | 55 | 28 | 0.0 | 0.0 | 0.00 | 0.00 | 0.34 | 88 | 1008.3 |
| 20260906184505 | 56 | 116 | 0.0 | 0.0 | 0.00 | 0.00 | 0.28 | 88 | 1008.2 |
| 20260906183006 | 56 | 116 | 0.0 | 0.0 | 0.00 | 0.00 | 0.23 | 88 | 1008.1 |
| 20260906181604 | 56 | 116 | 0.0 | 0.0 | 0.00 | 0.00 | 0.15 | 87 | 1007.5 |
| 20260906180121 | 57 | 116 | 0.0 | 0.0 | 0.00 | 0.00 | 0.10 | 87 | 1007.6 |
| 20260906174620 | 57 | 116 | 0.0 | 0.0 | 0.00 | 0.00 | 0.05 | 88 | 1007.5 |
| 20260906173057 | 57 | 116 | 0.0 | 0.0 | 0.00 | 0.00 | 0.01 | 87 | 1007.1 |
| 20260906171610 | 57 | 116 | 0.0 | 0.0 | 0.00 | 0.00 | 0.00 | 87 | 1007.1 |
| 20260906170059 | 57 | 116 | 0.0 | 0.0 | 0.00 | 0.00 | 0.00 | 87 | 1006.9 |
| 20260906164545 | 58 | 116 | 0.0 | 0.0 | 0.00 | 0.00 | 0.00 | 88 | 1006.7 |
| 20260906161549 | 57 | 116 | 0.0 | 0.0 | 0.00 | 0.00 | 0.00 | 88 | 1006.6 |
| 20260906160038 | 57 | 116 | 0.0 | 0.0 | 0.00 | 0.00 | 0.00 | 87 | 1006.7 |
| 20260906154544 | 57 | 116 | 0.0 | 0.0 | 0.00 | 0.00 | 0.00 | 87 | 1006.6 |
| 20260906153044 | 56 | 116 | 0.0 | 0.0 | 0.00 | 0.00 | 0.00 | 87 | 1006.8 |
| 20260906151535 | 56 | 116 | 0.0 | 0.0 | 0.00 | 0.00 | 0.00 | 86 | 1006.8 |
| 20260906150038 | 56 | 116 | 0.0 | 0.0 | 0.00 | 0.00 | 0.00 | 85 | 1006.7 |
| 20260906144535 | 56 | 116 | 0.0 | 0.0 | 0.00 | 0.00 | 0.00 | 85 | 1006.6 |
| 20260906143033 | 56 | 116 | 0.0 | 0.0 | 0.00 | 0.00 | 0.00 | 84 | 1006.6 |
| 20260906141531 | 57 | 116 | 0.0 | 0.0 | 0.00 | 0.00 | 0.00 | 82 | 1006.2 |
| 20260906140029 | 57 | 116 | 0.0 | 0.0 | 0.00 | 0.00 | 0.00 | 80 | 1005.4 |
| 20260906134523 | 58 | 116 | 0.0 | 0.0 | 0.00 | 0.00 | 0.00 | 79 | 1005.1 |
| 20260906133025 | 58 | 116 | 0.0 | 0.0 | 0.00 | 0.00 | 0.00 | 76 | 1005.0 |
| 20260906131514 | 58 | 116 | 0.0 | 0.0 | 0.00 | 0.00 | 0.00 | 76 | 1004.9 |
| 20260906130013 | 58 | 116 | 0.0 | 0.0 | 0.00 | 0.00 | 0.00 | 75 | 1004.3 |
| 20260906124505 | 58 | 116 | 0.0 | 0.0 | 0.00 | 0.00 | 0.00 | 77 | 1004.3 |
| 20260906123109 | 58 | 143 | 0.0 | 0.0 | 0.00 | 0.00 | 0.00 | 79 | 1003.8 |
| 20260906121557 | 58 | 143 | 0.0 | 0.0 | 0.00 | 0.00 | 0.00 | 78 | 1004.5 |
| 20260906120053 | 58 | 143 | 0.0 | 0.0 | 0.00 | 0.00 | 0.00 | 77 | 1004.0 |
| 20260906114552 | 58 | 143 | 0.0 | 0.0 | 0.00 | 0.00 | 0.00 | 78 | 1003.8 |
| 20260906113044 | 58 | 143 | 0.0 | 0.0 | 0.00 | 0.00 | 0.00 | 77 | 1004.1 |
| 20260906111545 | 58 | 143 | 0.0 | 0.0 | 0.00 | 0.00 | 0.00 | 76 | 1004.2 |
| 20260906110034 | 58 | 143 | 0.0 | 0.0 | 0.00 | 0.00 | 0.00 | 75 | 1002.8 |
| 20260906104533 | 58 | 143 | 0.0 | 0.0 | 0.00 | 0.00 | 0.00 | 75 | 1002.7 |
| 20260906103026 | 58 | 143 | 0.0 | 0.0 | 0.00 | 0.00 | 0.00 | 76 | 1003.2 |
| 20260906101529 | 58 | 143 | 0.0 | 0.0 | 0.00 | 0.00 | 0.00 | 76 | 1003.2 |
| 20260906100028 | 58 | 143 | 0.0 | 0.0 | 0.00 | 0.00 | 0.00 | 76 | 1003.2 |
| 20260906094514 | 58 | 141 | 0.0 | 0.0 | 0.00 | 0.00 | 0.00 | 76 | 1003.3 |
| 20260906093013 | 58 | 145 | 0.0 | 0.0 | 0.00 | 0.00 | 0.00 | 76 | 1003.4 |
| 20260906091505 | 58 | 150 | 0.0 | 0.0 | 0.00 | 0.00 | 0.00 | 75 | 1003.3 |
| 20260906084558 | 58 | 157 | 0.0 | 0.0 | 0.00 | 0.00 | 0.00 | 75 | 1003.7 |
| 20260906083052 | 58 | 138 | 0.0 | 0.0 | 0.00 | 0.00 | 0.00 | 75 | 1003.8 |
| 20260906081548 | 58 | 138 | 0.0 | 0.0 | 0.00 | 0.00 | 0.00 | 75 | 1004.1 |
| 20260906080047 | 58 | 137 | 0.0 | 0.0 | 0.00 | 0.00 | 0.00 | 75 | 1004.0 |
| 20260906074542 | 58 | 136 | 0.0 | 0.0 | 0.00 | 0.00 | 0.00 | 73 | 1004.1 |
| 20260906073042 | 58 | 143 | 0.0 | 0.0 | 0.00 | 0.00 | 0.00 | 73 | 1004.1 |
| 20260906071540 | 58 | 143 | 0.0 | 0.0 | 0.00 | 0.00 | 0.00 | 73 | 1003.9 |
| 20260906070040 | 58 | 140 | 0.0 | 0.0 | 0.00 | 0.00 | 0.00 | 73 | 1004.0 |
| 20260906064540 | 58 | 140 | 0.0 | 0.0 | 0.00 | 0.00 | 0.00 | 72 | 1004.1 |
| 20260906063040 | 59 | 140 | 0.0 | 0.0 | 0.00 | 0.00 | 0.00 | 71 | 1004.2 |
| 20260906061545 | 59 | 138 | 0.0 | 0.0 | 0.00 | 0.00 | 0.00 | 71 | 1004.2 |
| 20260906060042 | 59 | 138 | 0.0 | 0.0 | 0.00 | 0.00 | 0.00 | 71 | 1005.2 |
| 20260906054542 | 59 | 138 | 0.0 | 0.0 | 0.00 | 0.00 | 0.00 | 69 | 1004.7 |
| 20260906053036 | 59 | 131 | 0.0 | 0.0 | 0.00 | 0.00 | 0.00 | 69 | 1005.2 |
| 20260906051537 | 59 | 131 | 0.0 | 0.0 | 0.00 | 0.00 | 0.00 | 65 | 1005.8 |
| 20260906050034 | 59 | 131 | 0.0 | 0.0 | 0.00 | 0.00 | 0.00 | 61 | 1006.4 |
| 20260906044532 | 58 | 131 | 0.0 | 0.0 | 0.00 | 0.00 | 0.00 | 51 | 1006.6 |
| 20260906043034 | 59 | 152 | 0.0 | 0.0 | 0.00 | 0.00 | 0.00 | 48 | 1006.8 |
| 20260906041531 | 59 | 172 | 0.0 | 0.0 | 0.00 | 0.00 | 0.00 | 48 | 1006.1 |
| 20260906040029 | 59 | 150 | 0.0 | 0.0 | 0.00 | 0.00 | 0.00 | 47 | 1006.5 |
| 20260906034549 | 59 | 150 | 0.0 | 0.0 | 0.00 | 0.00 | 0.00 | 43 | 1006.3 |
| 20260906033032 | 59 | 145 | 0.0 | 0.0 | 0.00 | 0.00 | 0.00 | 42 | 1006.2 |
| 20260906031530 | 60 | 136 | 0.0 | 0.0 | 0.00 | 0.00 | 0.00 | 41 | 1006.3 |
| 20260906030026 | 60 | 147 | 0.0 | 0.0 | 0.00 | 0.00 | 0.00 | 42 | 1006.6 |
| 20260906024526 | 60 | 133 | 1.0 | 0.0 | 0.00 | 0.00 | 0.00 | 42 | 1006.6 |
| 20260906023029 | 60 | 185 | 0.0 | 0.0 | 0.00 | 0.00 | 0.00 | 39 | 1006.2 |
| 20260906021528 | 61 | 193 | 0.0 | 0.0 | 0.00 | 0.00 | 0.00 | 38 | 1006.3 |
| 20260906020023 | 61 | 193 | 0.0 | 0.0 | 0.00 | 0.00 | 0.00 | 38 | 1006.6 |
| 20260906014522 | 61 | 195 | 0.0 | 0.0 | 0.00 | 0.00 | 0.00 | 37 | 1006.0 |
| 20260906013022 | 62 | 193 | 0.0 | 0.0 | 0.00 | 0.00 | 0.00 | 36 | 1006.1 |
| 20260906011521 | 62 | 138 | 0.0 | 0.0 | 0.00 | 0.00 | 0.00 | 34 | 1006.2 |
| 20260906010020 | 63 | 161 | 0.0 | 0.0 | 0.00 | 0.00 | 0.00 | 33 | 1006.1 |
| 20260906004520 | 63 | 175 | 0.0 | 0.0 | 0.00 | 0.00 | 0.00 | 33 | 1006.2 |
| 20260906003020 | 63 | 202 | 1.0 | 0.0 | 0.00 | 0.00 | 0.00 | 32 | 1006.0 |
| 20260906001538 | 64 | 209 | 0.0 | 0.0 | 0.00 | 0.00 | 0.00 | 31 | 1005.9 |
| 20260906000019 | 65 | 137 | 1.0 | 0.0 | 0.00 | 0.00 | 0.00 | 30 | 1005.6 |
| 20260905234517 | 66 | 128 | 3.0 | 0.0 | 0.00 | 0.00 | 0.00 | 28 | 1004.9 |
| 20260905233020 | 66 | 195 | 3.0 | 0.0 | 0.00 | 0.00 | 0.00 | 28 | 1004.8 |
| 20260905231522 | 67 | 144 | 3.0 | 0.0 | 0.00 | 0.00 | 0.00 | 27 | 1004.9 |
| 20260905230017 | 69 | 282 | 1.0 | 0.0 | 0.00 | 0.00 | 0.00 | 26 | 1004.8 |
| 20260905224514 | 67 | 168 | 3.0 | 0.0 | 0.00 | 0.00 | 0.00 | 27 | 1005.1 |
| 20260905223025 | 67 | 145 | 3.0 | 0.0 | 0.00 | 0.00 | 0.00 | 27 | 1005.1 |
| 20260905221511 | 68 | 206 | 2.0 | 0.0 | 0.00 | 0.00 | 0.00 | 28 | 1005.2 |
| 20260905220011 | 67 | 167 | 2.0 | 0.0 | 0.00 | 0.00 | 0.00 | 28 | 1005.4 |
| 20260905214513 | 67 | 202 | 3.0 | 0.0 | 0.00 | 0.00 | 0.00 | 30 | 1005.4 |
| 20260905213010 | 68 | 216 | 2.0 | 0.0 | 0.00 | 0.00 | 0.00 | 28 | 1005.5 |
| 20260905211506 | 67 | 144 | 3.0 | 0.0 | 0.00 | 0.00 | 0.00 | 28 | 1005.9 |
| 20260905210003 | 66 | 144 | 3.0 | 0.0 | 0.00 | 0.00 | 0.00 | 31 | 1005.9 |
| 20260905204501 | 65 | 140 | 4.0 | 0.0 | 0.00 | 0.00 | 0.00 | 34 | 1005.8 |
| 20260905203001 | 66 | 224 | 4.0 | 0.0 | 0.00 | 0.00 | 0.00 | 31 | 1006.1 |
| 20260905201556 | 65 | 222 | 4.0 | 0.0 | 0.00 | 0.00 | 0.00 | 34 | 1006.0 |
| 20260905200115 | 65 | 203 | 4.0 | 0.0 | 0.00 | 0.00 | 0.00 | 33 | 1005.8 |
| 20260905194549 | 65 | 200 | 4.0 | 0.0 | 0.00 | 0.00 | 0.00 | 35 | 1006.0 |